Showing default

DUMMY CUBESAT, 52983

Orbit data source: Space-Track

DUMMY CUBESAT, 52983 is a payload satellite owned by KARI (KR) in SSO that was launched on Tue, 21 Jun 2022 UTC via an NURI launch vehicle from the Naro Space Center, South Korea (NSC). Payload-class satellites include a variety of spacecraft equipped with specific instruments for various scientific and technological missions. These include communications satellites like Starlink; space stations such as the ISS; scientific satellites like the Hubble; Earth observation satellites from companies like Planet Labs, Umbra, and HawkEye 360; GPS; miniature CubeSats for education and research; and military/defense satellites.

Loading next visibility...
Identifier
52983, 2022-065H
Orbit
SSO
Last TLE update
14 hours ago
Origin
Manufacturer
KARI
Mission
Non-operational Civil Technology
Bus & Motor
Unknown
Mass
1 kg wet, 1 kg dry
Launch date (UTC)
2022-06-21 (3 years ago)
Launch vehicle
NURI
Launch site
Naro Space Center, South Korea (NSC)
Object type
Payload
Rocket body
Debris
Shape & HBR
Box, 0.1 m
Radar Cross Section
0.015 m², Small (<0.1 m²)

Expand to show TLE details & history

TLE from 14 hours ago
0 DUMMY CUBESAT
1 52983U 22065H   25187.92013990  .00000285  00000-0  68898-4 0  9996
2 52983  98.1784 327.5267 0008240  30.5339 329.6339 14.60149331159759
Epoch: 2025-07-06T22:05Z
TLE epoch observation values (Epoch: 2025-07-06T22:05:00.087Z)
Latitude
-0.00006°
Longitude
71.13943°
Altitude
690.651 km
Speed
7.514 km/s
True Right ascension
21h 50m 06s
True Declination
0° 00' 00"
Sunlit
Object was in full shadow at epoch
Visualization orbit readout
Latitude
15.19336°
Longitude
-106.06414°
Altitude
699.156 km
Speed
7.505 km/s
Apparent Right ascension
10h 51m 24s
Apparent Declination
-11° 06' 43"
Sunlit
Object is in daylight
Visualization observer readout
Local Sidereal Time
00:01:51
Azimuth
33.278° NE
Elevation
-57.246°
Doppler factor
1
Orbital elements
Apogee altitude
695.596 km
Perigee altitude
683.948 km
Semi-major axis
7,067.909 km
Eccentricity
0.00082
Inclination
98.1784°
RAAN
327.5267°
Arg. of periapsis
30.5339°
True anomaly
Unknown
Mean anomaly
329.6339°
Eccentric anomaly
Unknown
Mean motion
3.65264 °/min
Orbital period
98.56 mins
BSTAR
0.000068898
Loading maneuver chart data...
Loading SW <> Apogee altitude chart data...
Loading historical data...
Loading historical data...
Loading historical data...
Loading historical data...
Loading historical data...
Loading historical data...
Loading historical data...

DUMMY CUBESAT Visibility forecast

Observer location: undefined°, undefined°

Span
Click to sort rows by Start time (UTC) header in descending order
Start Az.
Max El. time (UTC)
Max El. Az.
Max El.
End time (UTC)
End Az.
7 mins2025-07-07 21:41:29.435Z32.988° NE2025-07-07 21:45:29.435Z114.052° SE32.448°2025-07-07 21:48:29.435Z163.478° S
5 mins2025-07-07 23:20:29.435Z323.312° NNW2025-07-07 23:22:29.435Z290.35° WNW19.154°2025-07-07 23:25:29.435Z249.017° W
7 mins2025-07-08 08:45:29.435Z133.549° SE2025-07-08 08:48:29.435Z80.394° E32.389°2025-07-08 08:52:29.435Z5.676° NNE
5 mins2025-07-08 10:24:29.435Z235.358° WSW2025-07-08 10:26:29.435Z267.147° W18.425°2025-07-08 10:29:29.435Z309.862° NW
|